Time,TemperatureF,DewpointF,PressureIn,WindDirection,WindDirectionDegrees,WindSpeedMPH,WindSpeedGustMPH,Humidity,HourlyPrecipIn,Conditions,Clouds,dailyrainin,SoftwareType,DateUTC
2015-05-25 00:01:00,67.5,52.2,30.00,South,183,1.0,4.0,58,0.00,,,0.00,VWS V14.01,2015-05-25 04:01:00,
2015-05-25 00:06:00,67.4,52.1,30.00,South,183,1.0,3.0,58,0.00,,,0.00,VWS V14.01,2015-05-25 04:06:00,
2015-05-25 00:11:00,67.2,52.4,30.00,South,183,1.0,3.0,59,0.00,,,0.00,VWS V14.01,2015-05-25 04:11:00,
2015-05-25 00:16:00,67.1,52.3,30.00,South,183,1.0,3.0,59,0.00,,,0.00,VWS V14.01,2015-05-25 04:16:00,
2015-05-25 00:21:00,67.0,52.7,30.00,South,183,1.0,3.0,60,0.00,,,0.00,VWS V14.01,2015-05-25 04:21:00,
2015-05-25 00:26:00,66.8,52.5,29.99,South,183,1.0,3.0,60,0.00,,,0.00,VWS V14.01,2015-05-25 04:26:00,
2015-05-25 00:31:00,66.6,52.8,29.99,South,183,1.0,3.0,61,0.00,,,0.00,VWS V14.01,2015-05-25 04:31:00,
2015-05-25 00:36:00,66.5,52.7,29.99,South,183,1.0,3.0,61,0.00,,,0.00,VWS V14.01,2015-05-25 04:36:00,
2015-05-25 00:41:00,66.4,53.0,29.99,South,183,1.0,3.0,62,0.00,,,0.00,VWS V14.01,2015-05-25 04:41:00,
2015-05-25 00:47:00,66.3,52.9,29.99,South,183,1.0,3.0,62,0.00,,,0.00,VWS V14.01,2015-05-25 04:47:00,
2015-05-25 00:52:00,66.2,53.2,29.99,South,183,1.0,3.0,63,0.00,,,0.00,VWS V14.01,2015-05-25 04:52:00,
2015-05-25 00:57:00,66.1,53.2,29.99,South,183,2.0,3.0,63,0.00,,,0.00,VWS V14.01,2015-05-25 04:57:00,
2015-05-25 01:02:00,66.1,53.6,29.99,South,183,1.0,3.0,64,0.00,,,0.00,VWS V14.01,2015-05-25 05:02:00,
2015-05-25 01:07:00,66.1,53.6,29.99,South,183,3.0,4.0,64,0.00,,,0.00,VWS V14.01,2015-05-25 05:07:00,
2015-05-25 01:12:00,66.2,54.5,29.99,South,183,2.0,4.0,66,0.00,,,0.00,VWS V14.01,2015-05-25 05:12:00,
2015-05-25 01:17:00,66.1,54.0,29.98,South,184,2.0,5.0,65,0.00,,,0.00,VWS V14.01,2015-05-25 05:17:00,
2015-05-25 01:22:00,66.2,54.1,29.98,South,169,2.0,5.0,65,0.00,,,0.00,VWS V14.01,2015-05-25 05:22:00,
2015-05-25 01:27:00,66.4,54.3,29.98,South,191,2.0,5.0,65,0.00,,,0.00,VWS V14.01,2015-05-25 05:27:00,
2015-05-25 01:32:00,66.5,54.4,29.98,South,188,2.0,3.0,65,0.00,,,0.00,VWS V14.01,2015-05-25 05:32:00,
2015-05-25 01:37:00,66.6,54.5,29.98,SW,215,3.0,4.0,65,0.00,,,0.00,VWS V14.01,2015-05-25 05:37:00,
2015-05-25 01:42:00,66.7,54.2,29.97,SSW,203,1.0,4.0,64,0.00,,,0.00,VWS V14.01,2015-05-25 05:42:00,
2015-05-25 01:47:00,66.8,54.7,29.97,SSW,205,3.0,5.0,65,0.00,,,0.00,VWS V14.01,2015-05-25 05:47:00,
2015-05-25 01:52:00,66.9,54.3,29.97,SSW,205,1.0,5.0,64,0.00,,,0.00,VWS V14.01,2015-05-25 05:52:00,
2015-05-25 01:57:00,67.1,54.1,29.97,SSW,213,3.0,5.0,63,0.00,,,0.00,VWS V14.01,2015-05-25 05:57:00,
2015-05-25 02:02:00,67.2,54.2,29.97,SSW,201,4.0,6.0,63,0.00,,,0.00,VWS V14.01,2015-05-25 06:02:00,
2015-05-25 02:08:00,67.4,54.8,29.97,South,174,2.0,6.0,64,0.00,,,0.00,VWS V14.01,2015-05-25 06:08:00,
2015-05-25 02:13:00,67.5,54.5,29.97,SSW,211,4.0,6.0,63,0.00,,,0.00,VWS V14.01,2015-05-25 06:13:00,
2015-05-25 02:18:00,67.6,54.6,29.97,SSW,211,3.0,6.0,63,0.00,,,0.00,VWS V14.01,2015-05-25 06:18:00,
2015-05-25 02:23:00,67.8,54.3,29.97,SW,222,4.0,6.0,62,0.00,,,0.00,VWS V14.01,2015-05-25 06:23:00,
2015-05-25 02:28:00,68.0,54.5,29.96,SSW,205,3.0,6.0,62,0.00,,,0.00,VWS V14.01,2015-05-25 06:28:00,
2015-05-25 02:33:00,68.1,54.6,29.96,SW,218,4.0,5.0,62,0.00,,,0.00,VWS V14.01,2015-05-25 06:33:00,
2015-05-25 02:38:00,68.1,54.6,29.96,SSW,209,3.0,6.0,62,0.00,,,0.00,VWS V14.01,2015-05-25 06:38:00,
2015-05-25 02:43:00,68.1,54.2,29.96,SSW,207,3.0,6.0,61,0.00,,,0.00,VWS V14.01,2015-05-25 06:43:00,
2015-05-25 02:48:00,68.2,54.7,29.96,SSW,200,4.0,6.0,62,0.00,,,0.00,VWS V14.01,2015-05-25 06:48:00,
2015-05-25 02:53:00,68.2,54.2,29.96,SSW,213,3.0,6.0,61,0.00,,,0.00,VWS V14.01,2015-05-25 06:53:00,
2015-05-25 02:58:00,68.2,54.2,29.96,SW,214,3.0,6.0,61,0.00,,,0.00,VWS V14.01,2015-05-25 06:58:00,
2015-05-25 03:03:00,68.1,54.6,29.96,SSW,210,3.0,4.0,62,0.00,,,0.00,VWS V14.01,2015-05-25 07:03:00,
2015-05-25 03:13:00,68.0,54.5,29.95,SW,215,3.0,4.0,62,0.00,,,0.00,VWS V14.01,2015-05-25 07:13:00,
2015-05-25 03:18:00,67.9,54.4,29.95,SSW,210,3.0,5.0,62,0.00,,,0.00,VWS V14.01,2015-05-25 07:18:00,
2015-05-25 03:23:00,67.7,54.2,29.95,SSW,209,3.0,5.0,62,0.00,,,0.00,VWS V14.01,2015-05-25 07:23:00,
2015-05-25 03:28:00,67.6,54.6,29.95,SSW,209,2.0,5.0,63,0.00,,,0.00,VWS V14.01,2015-05-25 07:28:00,
2015-05-25 03:34:00,67.4,54.4,29.95,SW,218,2.0,4.0,63,0.00,,,0.00,VWS V14.01,2015-05-25 07:34:00,
2015-05-25 03:39:00,67.3,54.3,29.95,SW,218,3.0,4.0,63,0.00,,,0.00,VWS V14.01,2015-05-25 07:39:00,
2015-05-25 03:44:00,67.2,54.2,29.95,SW,218,3.0,4.0,63,0.00,,,0.00,VWS V14.01,2015-05-25 07:44:00,
2015-05-25 03:49:00,67.0,54.0,29.95,SW,218,2.0,4.0,63,0.00,,,0.00,VWS V14.01,2015-05-25 07:49:00,
2015-05-25 03:54:00,66.9,54.3,29.95,SW,218,2.0,4.0,64,0.00,,,0.00,VWS V14.01,2015-05-25 07:54:00,
2015-05-25 03:59:00,66.7,54.2,29.95,SW,218,3.0,4.0,64,0.00,,,0.00,VWS V14.01,2015-05-25 07:59:00,
2015-05-25 04:04:00,66.6,54.5,29.95,SW,218,3.0,4.0,65,0.00,,,0.00,VWS V14.01,2015-05-25 08:04:00,
2015-05-25 04:09:00,66.5,54.4,29.95,SW,218,2.0,4.0,65,0.00,,,0.00,VWS V14.01,2015-05-25 08:09:00,
2015-05-25 04:14:00,66.4,54.3,29.95,SW,218,3.0,4.0,65,0.00,,,0.00,VWS V14.01,2015-05-25 08:14:00,
2015-05-25 04:19:00,66.3,54.2,29.95,SSW,208,2.0,4.0,65,0.00,,,0.00,VWS V14.01,2015-05-25 08:19:00,
2015-05-25 04:24:00,66.3,54.2,29.94,SSW,208,3.0,5.0,65,0.00,,,0.00,VWS V14.01,2015-05-25 08:24:00,
2015-05-25 04:29:00,66.2,54.1,29.94,SSW,208,2.0,5.0,65,0.00,,,0.00,VWS V14.01,2015-05-25 08:29:00,
2015-05-25 04:34:00,66.2,54.5,29.94,SSW,207,3.0,4.0,66,0.00,,,0.00,VWS V14.01,2015-05-25 08:34:00,
2015-05-25 04:39:00,66.0,54.3,29.94,SSW,207,2.0,4.0,66,0.00,,,0.00,VWS V14.01,2015-05-25 08:39:00,
2015-05-25 04:44:00,65.9,54.7,29.94,SSW,201,2.0,4.0,67,0.00,,,0.00,VWS V14.01,2015-05-25 08:44:00,
2015-05-25 04:49:00,65.7,54.5,29.94,SSW,201,1.0,4.0,67,0.00,,,0.00,VWS V14.01,2015-05-25 08:49:00,
2015-05-25 04:55:00,65.4,54.6,29.94,SSW,201,1.0,4.0,68,0.00,,,0.00,VWS V14.01,2015-05-25 08:55:00,
2015-05-25 05:00:00,65.1,54.3,29.94,SSW,201,1.0,4.0,68,0.00,,,0.00,VWS V14.01,2015-05-25 09:00:00,
2015-05-25 05:05:00,64.9,54.5,29.94,SSW,201,2.0,3.0,69,0.00,,,0.00,VWS V14.01,2015-05-25 09:05:00,
2015-05-25 05:10:00,64.7,54.7,29.93,SSW,201,2.0,3.0,70,0.00,,,0.00,VWS V14.01,2015-05-25 09:10:00,
2015-05-25 05:15:00,64.5,54.5,29.93,SSW,201,1.0,4.0,70,0.00,,,0.00,VWS V14.01,2015-05-25 09:15:00,
2015-05-25 05:20:00,64.4,54.4,29.93,SSW,200,3.0,4.0,70,0.00,,,0.00,VWS V14.01,2015-05-25 09:20:00,
2015-05-25 05:25:00,64.3,54.3,29.93,SSW,198,2.0,4.0,70,0.00,,,0.00,VWS V14.01,2015-05-25 09:25:00,
2015-05-25 05:30:00,64.3,54.3,29.93,SSW,199,1.0,4.0,70,0.00,,,0.00,VWS V14.01,2015-05-25 09:30:00,
2015-05-25 05:35:00,64.5,54.1,29.93,SSW,196,3.0,4.0,69,0.00,,,0.00,VWS V14.01,2015-05-25 09:35:00,
2015-05-25 05:40:00,64.7,54.3,29.93,SSW,211,3.0,4.0,69,0.00,,,0.00,VWS V14.01,2015-05-25 09:40:00,
2015-05-25 05:45:00,64.8,54.0,29.93,SSW,208,3.0,4.0,68,0.00,,,0.00,VWS V14.01,2015-05-25 09:45:00,
2015-05-25 05:50:00,64.8,54.0,29.93,SSW,207,2.0,4.0,68,0.00,,,0.00,VWS V14.01,2015-05-25 09:50:00,
2015-05-25 05:55:00,64.8,54.0,29.93,SSW,213,3.0,4.0,68,0.00,,,0.00,VWS V14.01,2015-05-25 09:55:00,
2015-05-25 06:00:00,64.9,54.1,29.93,SSW,206,3.0,5.0,68,0.00,,,0.00,VWS V14.01,2015-05-25 10:00:00,
2015-05-25 06:05:00,64.9,54.1,29.93,SSW,199,3.0,4.0,68,0.00,,,0.00,VWS V14.01,2015-05-25 10:05:00,
2015-05-25 06:10:00,64.9,54.1,29.93,SSW,209,3.0,4.0,68,0.00,,,0.00,VWS V14.01,2015-05-25 10:10:00,
2015-05-25 06:16:00,64.9,54.1,29.93,SSW,207,3.0,5.0,68,0.00,,,0.00,VWS V14.01,2015-05-25 10:16:00,
2015-05-25 06:21:00,65.0,54.2,29.93,SSW,206,3.0,5.0,68,0.00,,,0.00,VWS V14.01,2015-05-25 10:21:00,
2015-05-25 06:26:00,65.1,54.3,29.93,SW,221,3.0,5.0,68,0.00,,,0.00,VWS V14.01,2015-05-25 10:26:00,
2015-05-25 06:31:00,65.2,54.4,29.93,SW,215,4.0,5.0,68,0.00,,,0.00,VWS V14.01,2015-05-25 10:31:00,
2015-05-25 06:36:00,65.3,54.5,29.93,SSW,212,4.0,5.0,68,0.00,,,0.00,VWS V14.01,2015-05-25 10:36:00,
2015-05-25 06:41:00,65.2,54.4,29.93,SSW,213,2.0,5.0,68,0.00,,,0.00,VWS V14.01,2015-05-25 10:41:00,
2015-05-25 06:46:00,65.3,54.9,29.93,SSW,193,2.0,5.0,69,0.00,,,0.00,VWS V14.01,2015-05-25 10:46:00,
2015-05-25 06:51:00,65.3,54.5,29.93,South,190,2.0,6.0,68,0.00,,,0.00,VWS V14.01,2015-05-25 10:51:00,
2015-05-25 06:56:00,65.4,54.6,29.93,SSW,206,3.0,6.0,68,0.00,,,0.00,VWS V14.01,2015-05-25 10:56:00,
2015-05-25 07:01:00,65.4,54.6,29.94,SSW,202,5.0,6.0,68,0.00,,,0.00,VWS V14.01,2015-05-25 11:01:00,
2015-05-25 07:06:00,65.5,54.7,29.93,SSW,213,3.0,5.0,68,0.00,,,0.00,VWS V14.01,2015-05-25 11:06:00,
2015-05-25 07:11:00,65.6,54.8,29.93,SSW,210,3.0,6.0,68,0.00,,,0.00,VWS V14.01,2015-05-25 11:11:00,
2015-05-25 07:16:00,65.8,55.0,29.94,SSW,213,4.0,6.0,68,0.00,,,0.00,VWS V14.01,2015-05-25 11:16:00,
2015-05-25 07:21:00,65.8,55.0,29.94,SW,217,3.0,6.0,68,0.00,,,0.00,VWS V14.01,2015-05-25 11:21:00,
2015-05-25 07:26:00,66.0,55.2,29.94,SSW,207,3.0,6.0,68,0.00,,,0.00,VWS V14.01,2015-05-25 11:26:00,
2015-05-25 07:31:00,66.0,55.5,29.94,SSW,210,4.0,6.0,69,0.00,,,0.00,VWS V14.01,2015-05-25 11:31:00,
2015-05-25 07:37:00,66.1,55.7,29.94,SSW,204,3.0,6.0,69,0.00,,,0.00,VWS V14.01,2015-05-25 11:37:00,
2015-05-25 07:42:00,66.2,55.7,29.94,SSW,210,4.0,6.0,69,0.00,,,0.00,VWS V14.01,2015-05-25 11:42:00,
2015-05-25 07:47:00,66.3,55.8,29.94,SSW,198,3.0,7.0,69,0.00,,,0.00,VWS V14.01,2015-05-25 11:47:00,
2015-05-25 07:52:00,66.5,56.0,29.94,SW,217,4.0,7.0,69,0.00,,,0.00,VWS V14.01,2015-05-25 11:52:00,
2015-05-25 07:57:00,66.7,56.2,29.94,SSW,213,4.0,7.0,69,0.00,,,0.00,VWS V14.01,2015-05-25 11:57:00,
2015-05-25 08:02:00,66.8,56.7,29.94,SSW,196,2.0,7.0,70,0.00,,,0.00,VWS V14.01,2015-05-25 12:02:00,
2015-05-25 08:07:00,67.0,56.9,29.94,SW,221,3.0,7.0,70,0.00,,,0.00,VWS V14.01,2015-05-25 12:07:00,
2015-05-25 08:12:00,67.2,57.1,29.94,SW,216,3.0,7.0,70,0.00,,,0.00,VWS V14.01,2015-05-25 12:12:00,
2015-05-25 08:17:00,67.3,57.2,29.94,SSW,199,3.0,7.0,70,0.00,,,0.00,VWS V14.01,2015-05-25 12:17:00,
2015-05-25 08:22:00,67.4,57.3,29.94,SW,222,4.0,7.0,70,0.00,,,0.00,VWS V14.01,2015-05-25 12:22:00,
2015-05-25 08:27:00,67.5,57.8,29.94,SW,215,4.0,7.0,71,0.00,,,0.00,VWS V14.01,2015-05-25 12:27:00,
2015-05-25 08:32:00,67.6,57.9,29.94,South,190,4.0,5.0,71,0.00,,,0.00,VWS V14.01,2015-05-25 12:32:00,
2015-05-25 08:37:00,67.7,58.0,29.94,SW,219,3.0,6.0,71,0.00,,,0.00,VWS V14.01,2015-05-25 12:37:00,
2015-05-25 08:42:00,67.8,58.1,29.95,SSW,206,3.0,6.0,71,0.00,,,0.00,VWS V14.01,2015-05-25 12:42:00,
2015-05-25 08:53:00,67.9,58.5,29.95,SW,225,1.0,6.0,72,0.00,,,0.00,VWS V14.01,2015-05-25 12:53:00,
2015-05-25 09:03:00,68.0,59.0,29.95,South,187,3.0,5.0,73,0.00,,,0.00,VWS V14.01,2015-05-25 13:03:00,
2015-05-25 09:08:00,68.1,59.1,29.95,South,188,6.0,7.0,73,0.00,,,0.00,VWS V14.01,2015-05-25 13:08:00,
2015-05-25 09:13:00,68.3,59.7,29.95,SW,218,3.0,7.0,74,0.00,,,0.00,VWS V14.01,2015-05-25 13:13:00,
2015-05-25 09:18:00,68.4,59.8,29.95,SSW,205,2.0,7.0,74,0.00,,,0.00,VWS V14.01,2015-05-25 13:18:00,
2015-05-25 09:23:00,68.6,60.0,29.94,SW,227,3.0,7.0,74,0.00,,,0.00,VWS V14.01,2015-05-25 13:23:00,
2015-05-25 09:28:00,68.6,60.4,29.94,South,188,4.0,7.0,75,0.00,,,0.00,VWS V14.01,2015-05-25 13:28:00,
2015-05-25 09:33:00,68.8,60.6,29.94,SW,219,2.0,5.0,75,0.00,,,0.00,VWS V14.01,2015-05-25 13:33:00,
2015-05-25 09:38:00,68.9,61.0,29.94,SSW,199,3.0,5.0,76,0.00,,,0.00,VWS V14.01,2015-05-25 13:38:00,
2015-05-25 09:48:00,69.1,61.2,29.94,SW,229,3.0,6.0,76,0.00,,,0.00,VWS V14.01,2015-05-25 13:48:00,
2015-05-25 09:53:00,69.3,61.4,29.93,SW,227,3.0,6.0,76,0.00,,,0.00,VWS V14.01,2015-05-25 13:53:00,
2015-05-25 09:58:00,69.5,61.6,29.93,SSW,202,4.0,6.0,76,0.00,,,0.00,VWS V14.01,2015-05-25 13:58:00,
2015-05-25 10:03:00,69.9,62.0,29.93,SSW,202,5.0,6.0,76,0.00,,,0.00,VWS V14.01,2015-05-25 14:03:00,
2015-05-25 10:09:00,70.2,62.3,29.93,SW,215,1.0,6.0,76,0.00,,,0.00,VWS V14.01,2015-05-25 14:09:00,
2015-05-25 10:14:00,70.5,62.6,29.92,SW,219,3.0,6.0,76,0.00,,,0.00,VWS V14.01,2015-05-25 14:14:00,
2015-05-25 10:19:00,71.0,63.1,29.92,SE,135,4.0,7.0,76,0.00,,,0.00,VWS V14.01,2015-05-25 14:19:00,
2015-05-25 10:24:00,71.3,63.0,29.92,South,178,3.0,7.0,75,0.00,,,0.00,VWS V14.01,2015-05-25 14:24:00,
2015-05-25 10:29:00,71.5,63.2,29.92,South,185,3.0,8.0,75,0.00,,,0.00,VWS V14.01,2015-05-25 14:29:00,
2015-05-25 10:34:00,71.8,63.5,29.92,SE,140,3.0,8.0,75,0.00,,,0.00,VWS V14.01,2015-05-25 14:34:00,
2015-05-25 10:39:00,72.2,63.8,29.91,SW,234,4.0,8.0,75,0.00,,,0.00,VWS V14.01,2015-05-25 14:39:00,
2015-05-25 10:44:00,72.8,64.4,29.91,SSW,201,3.0,8.0,75,0.00,,,0.00,VWS V14.01,2015-05-25 14:44:00,
2015-05-25 10:49:00,73.2,64.4,29.91,South,175,4.0,8.0,74,0.00,,,0.00,VWS V14.01,2015-05-25 14:49:00,
2015-05-25 10:54:00,73.3,64.1,29.91,SW,227,6.0,8.0,73,0.00,,,0.00,VWS V14.01,2015-05-25 14:54:00,
2015-05-25 10:59:00,73.3,64.9,29.91,SSW,202,5.0,9.0,75,0.00,,,0.00,VWS V14.01,2015-05-25 14:59:00,
2015-05-25 11:04:00,73.4,65.0,29.91,SSW,205,4.0,7.0,75,0.00,,,0.00,VWS V14.01,2015-05-25 15:04:00,
2015-05-25 11:09:00,73.4,65.0,29.91,SSW,209,8.0,9.0,75,0.00,,,0.00,VWS V14.01,2015-05-25 15:09:00,
2015-05-25 11:14:00,73.4,65.0,29.91,SW,216,4.0,9.0,75,0.00,,,0.00,VWS V14.01,2015-05-25 15:14:00,
2015-05-25 11:19:00,73.2,64.4,29.91,SSW,202,6.0,9.0,74,0.00,,,0.00,VWS V14.01,2015-05-25 15:19:00,
2015-05-25 11:25:00,73.2,64.8,29.91,SSE,163,4.0,9.0,75,0.00,,,0.00,VWS V14.01,2015-05-25 15:25:00,
2015-05-25 11:30:00,73.4,65.0,29.91,South,180,3.0,9.0,75,0.00,,,0.00,VWS V14.01,2015-05-25 15:30:00,
2015-05-25 11:35:00,73.7,65.3,29.91,South,180,3.0,9.0,75,0.00,,,0.00,VWS V14.01,2015-05-25 15:35:00,
2015-05-25 11:40:00,73.8,65.0,29.91,SSW,205,6.0,9.0,74,0.00,,,0.00,VWS V14.01,2015-05-25 15:40:00,
2015-05-25 11:45:00,73.7,65.3,29.91,SSW,204,3.0,9.0,75,0.00,,,0.00,VWS V14.01,2015-05-25 15:45:00,
2015-05-25 11:50:00,73.6,65.2,29.91,SSW,196,6.0,9.0,75,0.00,,,0.00,VWS V14.01,2015-05-25 15:50:00,
2015-05-25 11:55:00,73.5,65.1,29.91,SSW,202,2.0,9.0,75,0.00,,,0.00,VWS V14.01,2015-05-25 15:55:00,
2015-05-25 12:00:00,73.5,65.1,29.91,West,262,4.0,9.0,75,0.00,,,0.00,VWS V14.01,2015-05-25 16:00:00,
2015-05-25 12:05:00,73.9,65.5,29.91,SSW,194,5.0,8.0,75,0.00,,,0.00,VWS V14.01,2015-05-25 16:05:00,
2015-05-25 12:10:00,74.7,65.9,29.91,SSW,211,10.0,11.0,74,0.00,,,0.00,VWS V14.01,2015-05-25 16:10:00,
2015-05-25 12:15:00,75.6,65.9,29.91,SW,236,5.0,11.0,72,0.00,,,0.00,VWS V14.01,2015-05-25 16:15:00,
2015-05-25 12:20:00,76.2,66.1,29.91,SSW,207,5.0,11.0,71,0.00,,,0.00,VWS V14.01,2015-05-25 16:20:00,
2015-05-25 12:25:00,76.0,65.5,29.91,SSW,212,6.0,11.0,70,0.00,,,0.00,VWS V14.01,2015-05-25 16:25:00,
2015-05-25 12:30:00,75.5,65.4,29.91,SSE,165,6.0,11.0,71,0.00,,,0.00,VWS V14.01,2015-05-25 16:30:00,
2015-05-25 12:35:00,75.2,64.8,29.91,SW,226,4.0,9.0,70,0.00,,,0.00,VWS V14.01,2015-05-25 16:35:00,
2015-05-25 12:40:00,75.2,64.8,29.91,South,188,9.0,11.0,70,0.00,,,0.00,VWS V14.01,2015-05-25 16:40:00,
2015-05-25 12:46:00,75.3,65.3,29.91,SSW,207,4.0,11.0,71,0.00,,,0.00,VWS V14.01,2015-05-25 16:46:00,
2015-05-25 12:51:00,75.5,65.4,29.90,South,182,6.0,11.0,71,0.00,,,0.00,VWS V14.01,2015-05-25 16:51:00,
2015-05-25 12:56:00,76.0,65.5,29.90,SW,215,5.0,11.0,70,0.00,,,0.00,VWS V14.01,2015-05-25 16:56:00,
2015-05-25 13:01:00,77.0,65.6,29.90,SE,146,3.0,11.0,68,0.00,,,0.00,VWS V14.01,2015-05-25 17:01:00,
2015-05-25 13:06:00,77.4,66.0,29.90,WSW,250,3.0,6.0,68,0.00,,,0.00,VWS V14.01,2015-05-25 17:06:00,
2015-05-25 13:11:00,77.3,65.5,29.90,North,360,6.0,9.0,67,0.00,,,0.00,VWS V14.01,2015-05-25 17:11:00,
2015-05-25 13:16:00,76.9,65.5,29.90,SSW,212,6.0,9.0,68,0.00,,,0.00,VWS V14.01,2015-05-25 17:16:00,
2015-05-25 13:21:00,76.7,64.9,29.89,SSE,160,4.0,14.0,67,0.00,,,0.00,VWS V14.01,2015-05-25 17:21:00,
2015-05-25 13:26:00,76.9,65.5,29.89,SW,218,6.0,14.0,68,0.00,,,0.00,VWS V14.01,2015-05-25 17:26:00,
2015-05-25 13:31:00,76.7,64.9,29.89,South,188,3.0,14.0,67,0.00,,,0.00,VWS V14.01,2015-05-25 17:31:00,
2015-05-25 13:36:00,76.4,65.1,29.89,SSE,167,5.0,10.0,68,0.00,,,0.00,VWS V14.01,2015-05-25 17:36:00,
2015-05-25 13:41:00,75.8,64.9,29.90,SSW,196,11.0,12.0,69,0.00,,,0.00,VWS V14.01,2015-05-25 17:41:00,
2015-05-25 13:46:00,73.7,66.8,29.91,South,185,5.0,13.0,79,0.03,,,0.03,VWS V14.01,2015-05-25 17:46:00,
2015-05-25 13:51:00,71.1,66.4,29.91,SW,217,6.0,13.0,85,0.03,,,0.03,VWS V14.01,2015-05-25 17:51:00,
2015-05-25 13:56:00,69.7,66.0,29.91,SW,216,6.0,13.0,88,0.04,,,0.04,VWS V14.01,2015-05-25 17:56:00,
2015-05-25 14:02:00,69.2,66.2,29.91,WSW,242,3.0,13.0,90,0.04,,,0.04,VWS V14.01,2015-05-25 18:02:00,
2015-05-25 14:07:00,69.3,66.9,29.91,South,184,4.0,6.0,92,0.04,,,0.04,VWS V14.01,2015-05-25 18:07:00,
2015-05-25 14:12:00,69.8,67.4,29.90,South,179,3.0,6.0,92,0.04,,,0.04,VWS V14.01,2015-05-25 18:12:00,
2015-05-25 14:17:00,70.6,68.5,29.90,WSW,240,2.0,8.0,93,0.04,,,0.04,VWS V14.01,2015-05-25 18:17:00,
2015-05-25 14:22:00,71.5,69.1,29.90,WSW,238,5.0,8.0,92,0.04,,,0.04,VWS V14.01,2015-05-25 18:22:00,
2015-05-25 14:32:00,73.6,68.8,29.89,SW,215,5.0,8.0,85,0.04,,,0.04,VWS V14.01,2015-05-25 18:32:00,
2015-05-25 14:37:00,74.4,68.6,29.88,SE,144,4.0,8.0,82,0.04,,,0.04,VWS V14.01,2015-05-25 18:37:00,
2015-05-25 14:42:00,75.3,68.7,29.89,SW,222,6.0,8.0,80,0.04,,,0.04,VWS V14.01,2015-05-25 18:42:00,
2015-05-25 14:47:00,75.8,67.7,29.88,WSW,248,8.0,11.0,76,0.04,,,0.04,VWS V14.01,2015-05-25 18:47:00,
2015-05-25 14:52:00,76.4,67.9,29.88,SSW,211,4.0,13.0,75,0.04,,,0.04,VWS V14.01,2015-05-25 18:52:00,
2015-05-25 14:57:00,76.9,68.4,29.88,South,180,5.0,13.0,75,0.04,,,0.04,VWS V14.01,2015-05-25 18:57:00,
2015-05-25 15:02:00,77.5,67.8,29.88,SSW,196,6.0,9.0,72,0.00,,,0.04,VWS V14.01,2015-05-25 19:02:00,
2015-05-25 15:07:00,77.9,67.3,29.87,SSW,199,7.0,11.0,70,0.00,,,0.04,VWS V14.01,2015-05-25 19:07:00,
2015-05-25 15:12:00,78.0,65.7,29.87,South,185,11.0,12.0,66,0.00,,,0.04,VWS V14.01,2015-05-25 19:12:00,
2015-05-25 15:17:00,78.2,66.8,29.87,SSW,211,4.0,12.0,68,0.00,,,0.04,VWS V14.01,2015-05-25 19:17:00,
2015-05-25 15:23:00,78.9,67.0,29.87,SW,227,6.0,12.0,67,0.00,,,0.04,VWS V14.01,2015-05-25 19:23:00,
2015-05-25 15:28:00,79.3,66.1,29.87,South,171,7.0,14.0,64,0.00,,,0.04,VWS V14.01,2015-05-25 19:28:00,
2015-05-25 15:33:00,79.1,65.4,29.87,SSW,201,7.0,14.0,63,0.00,,,0.04,VWS V14.01,2015-05-25 19:33:00,
2015-05-25 15:38:00,79.3,64.2,29.86,South,177,6.0,17.0,60,0.00,,,0.04,VWS V14.01,2015-05-25 19:38:00,
2015-05-25 15:43:00,79.6,64.5,29.86,SW,235,6.0,17.0,60,0.00,,,0.04,VWS V14.01,2015-05-25 19:43:00,
2015-05-25 15:48:00,79.7,64.1,29.85,SW,226,7.0,17.0,59,0.00,,,0.04,VWS V14.01,2015-05-25 19:48:00,
2015-05-25 15:53:00,79.8,64.2,29.85,SW,221,5.0,17.0,59,0.00,,,0.04,VWS V14.01,2015-05-25 19:53:00,
2015-05-25 15:58:00,80.0,64.4,29.85,SW,235,6.0,17.0,59,0.00,,,0.04,VWS V14.01,2015-05-25 19:58:00,
2015-05-25 16:03:00,79.5,64.4,29.86,SSW,194,6.0,9.0,60,0.00,,,0.04,VWS V14.01,2015-05-25 20:03:00,
2015-05-25 16:08:00,79.1,64.5,29.86,SSW,208,4.0,9.0,61,0.00,,,0.04,VWS V14.01,2015-05-25 20:08:00,
2015-05-25 16:13:00,79.1,64.0,29.86,SW,216,8.0,11.0,60,0.00,,,0.04,VWS V14.01,2015-05-25 20:13:00,
2015-05-25 16:18:00,79.0,63.5,29.85,SSW,204,14.0,15.0,59,0.00,,,0.04,VWS V14.01,2015-05-25 20:18:00,
2015-05-25 16:23:00,79.0,63.9,29.85,SW,219,5.0,16.0,60,0.00,,,0.04,VWS V14.01,2015-05-25 20:23:00,
2015-05-25 16:28:00,79.5,63.4,29.85,SW,217,6.0,16.0,58,0.00,,,0.04,VWS V14.01,2015-05-25 20:28:00,
2015-05-25 16:33:00,79.7,64.1,29.85,SSW,198,3.0,7.0,59,0.00,,,0.04,VWS V14.01,2015-05-25 20:33:00,
2015-05-25 16:39:00,79.8,64.2,29.85,SSW,197,7.0,8.0,59,0.00,,,0.04,VWS V14.01,2015-05-25 20:39:00,